When you browse on this site, cookies collect data to enhance your experience and personalize the content and advertising you see.
Visit our Privacy Policy to learn more. By continuing to use the site, you agree to this use of cookies and data.
  • In Spain
  • List of Countries
  • For 7 days
  • Water Temperature
  • Weather Map
  • Weather Widgets
  • user-avatar
    Login

    Hourly Weather Rio Branco

    Today, 21 February, Friday

    Time Temperature Precipitation Wind Pressure Humidity
    00:00 +27°C° 0.1 mm 1 mps 744 mmHg 86%
    01:00 +26°C° 0.1 mm 1 mps 743 mmHg 90%
    08:00 +27°C° 0 mm 0 mps 745 mmHg 82%
    09:00 +31°C° 0 mm 1 mps 746 mmHg 74%
    10:00 +33°C° 0 mm 1 mps 746 mmHg 66%
    11:00 +34°C° 0.1 mm 1 mps 745 mmHg 63%
    12:00 +35°C° 0.1 mm 1 mps 744 mmHg 59%
    13:00 +36°C° 0.1 mm 1 mps 743 mmHg 56%
    14:00 +33°C° 2.1 mm 1 mps 743 mmHg 69%
    15:00 +31°C° 2.1 mm 2 mps 743 mmHg 81%
    16:00 +28°C° 2.1 mm 3 mps 743 mmHg 93%
    17:00 +27°C° 2.4 mm 2 mps 743 mmHg 94%
    18:00 +26°C° 2.4 mm 2 mps 744 mmHg 95%
    19:00 +26°C° 2.4 mm 2 mps 744 mmHg 97%
    20:00 +26°C° 1 mm 2 mps 745 mmHg 97%
    21:00 +26°C° 1 mm 2 mps 746 mmHg 98%
    22:00 +25°C° 1 mm 2 mps 746 mmHg 98%
    23:00 +25°C° 0.5 mm 1 mps 746 mmHg 98%

    Tomorrow, 22 February, Saturday

    Time Temperature Precipitation Wind Pressure Humidity
    00:00 +25°C° 0.5 mm 1 mps 746 mmHg 98%
    01:00 +25°C° 0.5 mm 1 mps 745 mmHg 98%
    02:00 +25°C° 0.3 mm 1 mps 745 mmHg 98%
    03:00 +25°C° 0.3 mm 1 mps 745 mmHg 98%
    04:00 +25°C° 0.3 mm 1 mps 745 mmHg 98%
    05:00 +25°C° 0.7 mm 1 mps 745 mmHg 98%
    06:00 +25°C° 0.7 mm 1 mps 746 mmHg 98%
    07:00 +25°C° 0.7 mm 1 mps 747 mmHg 98%
    08:00 +25°C° 0.5 mm 2 mps 747 mmHg 96%
    09:00 +25°C° 0.5 mm 2 mps 747 mmHg 95%
    10:00 +26°C° 0.5 mm 3 mps 748 mmHg 94%
    11:00 +25°C° 0.1 mm 3 mps 747 mmHg 91%
    12:00 +25°C° 0.1 mm 3 mps 747 mmHg 89%
    13:00 +25°C° 0.1 mm 3 mps 746 mmHg 86%
    14:00 +25°C° 0 mm 2 mps 746 mmHg 87%
    15:00 +24°C° 0 mm 1 mps 745 mmHg 87%
    16:00 +24°C° 0 mm 1 mps 745 mmHg 87%
    17:00 +24°C° 0 mm 1 mps 745 mmHg 87%
    18:00 +24°C° 0 mm 1 mps 746 mmHg 87%
    19:00 +22°C° 0 mm 0 mps 746 mmHg 87%
    20:00 +23°C° 0 mm 1 mps 747 mmHg 86%
    21:00 +23°C° 0 mm 1 mps 747 mmHg 86%
    22:00 +23°C° 0 mm 2 mps 747 mmHg 86%
    23:00 +21°C° 0 mm 2 mps 747 mmHg 85%

    Day after tomorrow, 23 February, Sunday

    Time Temperature Precipitation Wind Pressure Humidity
    00:00 +21°C° 0 mm 2 mps 747 mmHg 84%
    01:00 +20°C° 0 mm 2 mps 746 mmHg 83%
    02:00 +21°C° 0 mm 1 mps 746 mmHg 84%
    03:00 +20°C° 0 mm 1 mps 746 mmHg 84%
    04:00 +20°C° 0 mm 1 mps 746 mmHg 85%
    05:00 +21°C° 0 mm 1 mps 746 mmHg 84%
    06:00 +21°C° 0 mm 1 mps 747 mmHg 83%
    07:00 +21°C° 0 mm 1 mps 747 mmHg 82%
    08:00 +24°C° 0 mm 1 mps 747 mmHg 75%
    09:00 +26°C° 0 mm 1 mps 748 mmHg 69%
    10:00 +28°C° 0 mm 1 mps 748 mmHg 63%
    11:00 +29°C° 0 mm 1 mps 747 mmHg 62%
    12:00 +30°C° 0 mm 1 mps 746 mmHg 61%
    13:00 +31°C° 0 mm 1 mps 745 mmHg 60%
    14:00 +31°C° 0 mm 1 mps 744 mmHg 61%
    15:00 +31°C° 0 mm 1 mps 744 mmHg 63%
    16:00 +29°C° 0 mm 0 mps 743 mmHg 64%
    17:00 +27°C° 0 mm 0 mps 743 mmHg 70%
    18:00 +26°C° 0 mm 0 mps 744 mmHg 75%
    19:00 +24°C° 0 mm 0 mps 744 mmHg 81%
    20:00 +24°C° 0 mm 0 mps 745 mmHg 80%
    21:00 +24°C° 0 mm 0 mps 745 mmHg 80%
    22:00 +24°C° 0 mm 0 mps 746 mmHg 80%
    23:00 +24°C° 0 mm 0 mps 746 mmHg 81%

    24 February, Monday

    Time Temperature Precipitation Wind Pressure Humidity
    00:00 +23°C° 0 mm 0 mps 745 mmHg 82%
    01:00 +23°C° 0 mm 0 mps 745 mmHg 84%
    02:00 +22°C° 0 mm 0 mps 745 mmHg 85%
    03:00 +22°C° 0 mm 0 mps 745 mmHg 87%
    04:00 +22°C° 0 mm 0 mps 744 mmHg 88%
    05:00 +22°C° 0 mm 0 mps 745 mmHg 86%
    06:00 +23°C° 0 mm 0 mps 745 mmHg 85%
    07:00 +24°C° 0 mm 0 mps 746 mmHg 83%
    08:00 +26°C° 0 mm 0 mps 746 mmHg 75%
    09:00 +29°C° 0 mm 0 mps 746 mmHg 68%
    10:00 +31°C° 0 mm 0 mps 746 mmHg 60%
    11:00 +31°C° 0.1 mm 0 mps 745 mmHg 59%
    12:00 +32°C° 0.1 mm 0 mps 744 mmHg 58%
    13:00 +34°C° 0.1 mm 1 mps 743 mmHg 57%
    14:00 +34°C° 0.2 mm 1 mps 742 mmHg 61%
    15:00 +31°C° 0.2 mm 0 mps 741 mmHg 64%
    16:00 +31°C° 0.2 mm 0 mps 740 mmHg 67%
    17:00 +29°C° 0.2 mm 0 mps 741 mmHg 74%
    18:00 +27°C° 0.2 mm 0 mps 741 mmHg 80%
    19:00 +27°C° 0.2 mm 1 mps 742 mmHg 86%
    20:00 +27°C° 0 mm 1 mps 742 mmHg 88%
    21:00 +26°C° 0 mm 1 mps 743 mmHg 89%
    22:00 +26°C° 0 mm 1 mps 744 mmHg 91%
    23:00 +26°C° 1.6 mm 1 mps 744 mmHg 93%

    25 February, Tuesday

    Time Temperature Precipitation Wind Pressure Humidity
    00:00 +26°C° 1.6 mm 1 mps 744 mmHg 95%
    01:00 +25°C° 1.6 mm 1 mps 744 mmHg 97%
    02:00 +25°C° 0.1 mm 1 mps 743 mmHg 97%
    03:00 +25°C° 0.1 mm 1 mps 743 mmHg 97%
    04:00 +25°C° 0.1 mm 1 mps 743 mmHg 97%
    05:00 +25°C° 0.7 mm 1 mps 744 mmHg 97%
    06:00 +25°C° 0.7 mm 1 mps 745 mmHg 97%
    07:00 +26°C° 0.7 mm 2 mps 745 mmHg 97%
    08:00 +27°C° 0.2 mm 2 mps 745 mmHg 92%
    09:00 +28°C° 0.2 mm 1 mps 746 mmHg 88%
    10:00 +29°C° 0.2 mm 1 mps 746 mmHg 84%
    11:00 +29°C° 1.4 mm 2 mps 745 mmHg 85%
    12:00 +30°C° 1.4 mm 2 mps 744 mmHg 86%
    13:00 +30°C° 1.4 mm 3 mps 744 mmHg 86%
    14:00 +30°C° 1.7 mm 2 mps 743 mmHg 86%
    15:00 +30°C° 1.7 mm 2 mps 742 mmHg 86%
    16:00 +30°C° 1.7 mm 2 mps 741 mmHg 85%
    17:00 +29°C° 0.1 mm 1 mps 742 mmHg 88%
    18:00 +28°C° 0.1 mm 1 mps 742 mmHg 91%
    19:00 +27°C° 0.1 mm 1 mps 742 mmHg 94%
    20:00 +26°C° 0 mm 1 mps 743 mmHg 94%
    21:00 +26°C° 0 mm 1 mps 744 mmHg 94%
    22:00 +26°C° 0 mm 1 mps 745 mmHg 94%
    23:00 +25°C° 0 mm 1 mps 744 mmHg 94%

    26 February, Wednesday

    Time Temperature Precipitation Wind Pressure Humidity
    00:00 +25°C° 0 mm 1 mps 744 mmHg 95%
    01:00 +25°C° 0 mm 1 mps 744 mmHg 95%
    02:00 +24°C° 0 mm 1 mps 744 mmHg 95%
    03:00 +24°C° 0 mm 1 mps 743 mmHg 95%
    04:00 +24°C° 0 mm 1 mps 743 mmHg 95%
    05:00 +25°C° 0 mm 1 mps 744 mmHg 94%
    06:00 +25°C° 0 mm 1 mps 744 mmHg 92%
    07:00 +26°C° 0 mm 1 mps 745 mmHg 91%
    08:00 +28°C° 0 mm 1 mps 745 mmHg 82%
    09:00 +30°C° 0 mm 1 mps 746 mmHg 74%
    10:00 +32°C° 0 mm 1 mps 746 mmHg 66%
    11:00 +33°C° 0 mm 1 mps 745 mmHg 63%
    12:00 +34°C° 0 mm 1 mps 744 mmHg 60%
    13:00 +35°C° 0 mm 1 mps 743 mmHg 57%
    14:00 +34°C° 0.8 mm 1 mps 742 mmHg 65%
    15:00 +33°C° 0.8 mm 1 mps 741 mmHg 73%
    16:00 +32°C° 0.8 mm 1 mps 740 mmHg 81%
    17:00 +30°C° 0.3 mm 1 mps 741 mmHg 84%
    18:00 +27°C° 0.3 mm 0 mps 741 mmHg 88%
    19:00 +25°C° 0.3 mm 0 mps 742 mmHg 91%
    20:00 +25°C° 0.1 mm 0 mps 743 mmHg 92%
    21:00 +25°C° 0.1 mm 0 mps 743 mmHg 93%
    22:00 +24°C° 0.1 mm 0 mps 744 mmHg 94%
    23:00 +24°C° 0.1 mm 0 mps 744 mmHg 94%
    Show more